星链-36200(STARLINK-36200)

导读

STARLINK-36200是美国太空探索技术公司(SpaceX)于2025年12月14日发射的星链(Starlink)低轨卫星,隶属于SpaceX打造的全球卫星互联网星座项目。星链项目旨在通过数千颗低地球轨道卫星为全球提供高速、低延迟的互联网接入服务,重点覆盖地面网络难以抵达的偏远区域,同时兼顾商业、应急通信等多元应用。 作为星链星座持续扩展部署的新增卫星,STARLINK-36200将进一步提升星座的全球覆盖密度与服务容量,助力缩小数字鸿沟,但也延续了星链项目一直以来引发的,关于太空拥堵、天文观测干扰等领域的讨论与担忧。

基本信息
目录编号:
67101
目录名称:
STARLINK-36200
国际标识:
2025-298AC
轨道中心:
EARTH
卫星名称:
星链-36200
卫星全名:
星链-36200(STARLINK-36200)
卫星状态:
在轨 (已飞行264 天)
发射日期:
2025-12-14 UTC
国别 :
美国 (US)
星等 :
--
轨道信息
数据来源 国际轨道数据
星历时间: 2026-09-03T20:55:34+0800
1天前
查看轨道信息
半长轴: 6950.179km
偏心率: 0.0003652
轨道倾角: 70.000°
近地点辐角 270.293°
升交点赤经 286.189°
平近点角 89.781°
近地点: 569.503km
远地点: 574.581km
周期: 96.107分钟
每日圈数: 14.983348
详细信息
固有亮度:
5
最大亮度:
2.5
卫星平台:
Starlink V1.0
覆盖范围:
全球
运营商:
太空探索技术公司
运营商所在国:
美国
制造商(研发单位):
太空探索技术公司
制造商所在国:
美国
使用方式:
暂无
卫星简介
Starlink 计划是 SpaceX 推出的全球卫星互联网项目,通过发射低轨道卫星,为全球尤其是偏远地区提供高速、低延迟的互联网服务。自 2019 年起,Starlink 已部署数千颗卫星,旨在缩小全球数字鸿沟,推动互联网普及。该项目还为军事、航空等行业提供通信支持,带来广泛经济效益。
2D轨道图
3D轨道图
轨道高度分析图
轨道倾角分析图
轨道综合分析图
查看轨道综合分析图
交会数据列表
事件ID 空间交会对象 最接近时刻(TCA) 交会距离 交会风险概率(CRP) 交会风险指数(CRI) 操作
CDM_260904-230606-175206-710123
OBJECT T (61752)
2026-09-04T
23:06:25+0000
1.548 km
极远距离
6.06293E-6 低风险 0.51
CDM_260906-083806-665806-710122
COSMIC (66658)
2026-09-06T
08:38:08+0000
1.731 km
极远距离
3.702941E-6 低风险 0.46
CDM_260903-061803-803906-710125
2026-09-03T
06:18:10+0000
2.358 km
极远距离
1.973995E-6 低风险 0.41
CDM_260906-224004-435006-710121
2026-09-06T
22:40:29+0000
2.095 km
极远距离
1.470951E-6 低风险 0.38